Time,TemperatureF,DewpointF,PressureIn,WindDirection,WindDirectionDegrees,WindSpeedMPH,WindSpeedGustMPH,Humidity,HourlyPrecipIn,Conditions,Clouds,dailyrainin,SoftwareType,DateUTC
2013-11-03 00:03:00,38.3,9.6,29.73,SW,222,4.0,8.3,30,0.00,,,0.00,VWS V14.01,2013-11-03 07:03:00,
2013-11-03 00:09:00,38.7,9.2,29.76,SSW,211,8.7,11.0,29,0.00,,,0.00,VWS V14.01,2013-11-03 07:09:00,
2013-11-03 00:14:00,38.5,9.0,29.76,SE,144,0.0,0.0,29,0.00,,,0.00,VWS V14.01,2013-11-03 07:14:00,
2013-11-03 00:19:00,38.3,8.8,29.76,West,275,0.0,5.8,29,0.00,,,0.00,VWS V14.01,2013-11-03 07:19:00,
2013-11-03 00:24:00,37.9,8.5,29.76,NNW,331,0.0,9.2,29,0.00,,,0.00,VWS V14.01,2013-11-03 07:24:00,
2013-11-03 00:30:00,37.9,8.5,29.76,West,268,0.0,3.1,29,0.00,,,0.00,VWS V14.01,2013-11-03 07:30:00,
2013-11-03 00:35:00,37.8,8.4,29.76,North,7,0.0,0.0,29,0.00,,,0.00,VWS V14.01,2013-11-03 07:35:00,
2013-11-03 00:41:00,37.4,8.1,29.76,North,357,0.0,0.0,29,0.00,,,0.00,VWS V14.01,2013-11-03 07:41:00,
2013-11-03 00:46:00,37.4,8.1,29.76,NNW,345,0.0,0.0,29,0.00,,,0.00,VWS V14.01,2013-11-03 07:46:00,
2013-11-03 00:52:00,37.4,8.1,29.76,North,353,0.0,0.0,29,0.00,,,0.00,VWS V14.01,2013-11-03 07:52:00,
2013-11-03 00:57:00,37.4,8.1,29.76,North,0,0.0,0.0,29,0.00,,,0.00,VWS V14.01,2013-11-03 07:57:00,
2013-11-03 01:03:00,37.4,8.1,29.76,NW,314,2.7,7.6,29,0.00,,,0.00,VWS V14.01,2013-11-03 08:03:00,
2013-11-03 01:08:00,37.4,8.1,29.76,North,2,3.1,3.6,29,0.00,,,0.00,VWS V14.01,2013-11-03 08:08:00,
2013-11-03 01:14:00,37.4,8.1,29.76,NW,315,0.0,0.0,29,0.00,,,0.00,VWS V14.01,2013-11-03 08:14:00,
2013-11-03 01:20:00,37.4,8.1,29.76,WNW,301,3.1,3.1,29,0.00,,,0.00,VWS V14.01,2013-11-03 08:20:00,
2013-11-03 01:25:00,37.4,8.1,29.76,NW,311,0.0,0.0,29,0.00,,,0.00,VWS V14.01,2013-11-03 08:25:00,
2013-11-03 01:30:00,37.4,8.1,29.76,North,0,0.0,0.0,29,0.00,,,0.00,VWS V14.01,2013-11-03 08:30:00,
2013-11-03 01:35:00,37.4,8.1,29.76,North,357,0.0,5.8,29,0.00,,,0.00,VWS V14.01,2013-11-03 08:35:00,
2013-11-03 01:41:00,37.4,8.1,29.76,NNW,340,2.7,3.6,29,0.00,,,0.00,VWS V14.01,2013-11-03 08:41:00,
2013-11-03 01:46:00,37.4,8.1,29.76,NNW,342,0.0,3.1,29,0.00,,,0.00,VWS V14.01,2013-11-03 08:46:00,
2013-11-03 01:52:00,37.4,8.1,29.76,SW,231,3.6,3.6,29,0.00,,,0.00,VWS V14.01,2013-11-03 08:52:00,
2013-11-03 01:57:00,37.6,9.0,29.79,West,261,3.1,4.0,30,0.00,,,0.00,VWS V14.01,2013-11-03 08:57:00,
2013-11-03 02:00:00,37.4,8.1,29.79,North,353,0.0,4.9,29,0.00,,,0.00,VWS V14.01,2013-11-03 10:00:00,
2013-11-03 02:05:00,37.4,8.1,29.79,NNW,332,0.0,0.0,29,0.00,,,0.00,VWS V14.01,2013-11-03 10:05:00,
2013-11-03 02:10:00,37.4,8.1,29.79,North,350,0.0,0.0,29,0.00,,,0.00,VWS V14.01,2013-11-03 10:10:00,
2013-11-03 02:15:00,37.4,8.1,29.79,North,353,0.0,0.0,29,0.00,,,0.00,VWS V14.01,2013-11-03 10:15:00,
2013-11-03 02:21:00,37.4,8.1,29.79,North,1,0.0,0.0,29,0.00,,,0.00,VWS V14.01,2013-11-03 10:21:00,
2013-11-03 02:27:00,37.4,8.1,29.79,NNW,330,0.0,0.0,29,0.00,,,0.00,VWS V14.01,2013-11-03 10:27:00,
2013-11-03 02:32:00,37.4,8.1,29.79,NNW,333,0.0,0.0,29,0.00,,,0.00,VWS V14.01,2013-11-03 10:32:00,
2013-11-03 02:37:00,37.4,8.1,29.79,NNW,340,0.0,0.0,29,0.00,,,0.00,VWS V14.01,2013-11-03 10:37:00,
2013-11-03 02:42:00,37.6,8.2,29.79,NNW,329,0.0,0.0,29,0.00,,,0.00,VWS V14.01,2013-11-03 10:42:00,
2013-11-03 02:48:00,37.6,8.2,29.79,NNE,20,0.0,0.0,29,0.00,,,0.00,VWS V14.01,2013-11-03 10:48:00,
2013-11-03 02:53:00,37.6,8.2,29.79,West,259,0.0,3.1,29,0.00,,,0.00,VWS V14.01,2013-11-03 10:53:00,
2013-11-03 02:58:00,37.4,8.1,29.79,SW,214,0.0,3.1,29,0.00,,,0.00,VWS V14.01,2013-11-03 10:58:00,
2013-11-03 03:03:00,37.6,8.2,29.79,NNW,332,0.0,0.0,29,0.00,,,0.00,VWS V14.01,2013-11-03 11:03:00,
2013-11-03 03:09:00,37.8,8.4,29.82,SW,227,7.6,8.3,29,0.00,,,0.00,VWS V14.01,2013-11-03 11:09:00,
2013-11-03 03:14:00,38.5,9.0,29.82,SSW,211,8.3,11.0,29,0.00,,,0.00,VWS V14.01,2013-11-03 11:14:00,
2013-11-03 03:19:00,38.7,9.2,29.82,SW,225,8.3,11.0,29,0.00,,,0.00,VWS V14.01,2013-11-03 11:19:00,
2013-11-03 03:24:00,38.3,8.8,29.82,WSW,254,5.4,6.3,29,0.00,,,0.00,VWS V14.01,2013-11-03 11:24:00,
2013-11-03 03:29:00,37.9,8.5,29.82,SW,216,6.3,6.3,29,0.00,,,0.00,VWS V14.01,2013-11-03 11:29:00,
2013-11-03 03:34:00,37.6,8.2,29.82,SW,234,5.4,8.1,29,0.00,,,0.00,VWS V14.01,2013-11-03 11:34:00,
2013-11-03 03:39:00,37.4,8.1,29.82,West,262,4.0,4.0,29,0.04,,,0.04,VWS V14.01,2013-11-03 11:39:00,
2013-11-03 03:45:00,37.2,7.9,29.82,WSW,253,0.0,0.0,29,0.04,,,0.04,VWS V14.01,2013-11-03 11:45:00,
2013-11-03 03:51:00,37.0,7.8,29.82,WSW,242,3.6,5.8,29,0.04,,,0.04,VWS V14.01,2013-11-03 11:51:00,
2013-11-03 03:56:00,37.0,7.8,29.82,West,280,0.0,0.0,29,0.04,,,0.04,VWS V14.01,2013-11-03 11:56:00,
2013-11-03 04:01:00,37.0,7.8,29.82,West,277,0.0,4.0,29,0.04,,,0.04,VWS V14.01,2013-11-03 12:01:00,
2013-11-03 04:07:00,37.0,8.5,29.82,WNW,298,0.0,0.0,30,0.04,,,0.04,VWS V14.01,2013-11-03 12:07:00,
2013-11-03 04:12:00,37.0,8.5,29.82,NW,304,0.0,0.0,30,0.04,,,0.04,VWS V14.01,2013-11-03 12:12:00,
2013-11-03 04:18:00,37.0,8.5,29.82,NW,305,0.0,0.0,30,0.04,,,0.04,VWS V14.01,2013-11-03 12:18:00,
2013-11-03 04:23:00,37.0,8.5,29.82,NW,304,0.0,0.0,30,0.04,,,0.04,VWS V14.01,2013-11-03 12:23:00,
2013-11-03 04:28:00,37.0,8.5,29.82,NW,305,0.0,0.0,30,0.04,,,0.04,VWS V14.01,2013-11-03 12:28:00,
2013-11-03 04:33:00,37.0,8.5,29.82,South,170,0.0,3.6,30,0.04,,,0.04,VWS V14.01,2013-11-03 12:33:00,
2013-11-03 04:38:00,37.0,8.5,29.82,NNW,344,0.0,0.0,30,0.00,,,0.04,VWS V14.01,2013-11-03 12:38:00,
2013-11-03 04:44:00,37.2,8.6,29.82,WSW,240,2.2,3.1,30,0.00,,,0.04,VWS V14.01,2013-11-03 12:44:00,
2013-11-03 04:49:00,37.2,8.6,29.82,NNW,348,0.0,0.0,30,0.00,,,0.04,VWS V14.01,2013-11-03 12:49:00,
2013-11-03 04:55:00,37.4,8.1,29.82,NW,326,0.0,0.0,29,0.00,,,0.04,VWS V14.01,2013-11-03 12:55:00,
2013-11-03 05:01:00,37.2,8.6,29.82,SW,219,2.7,3.6,30,0.00,,,0.04,VWS V14.01,2013-11-03 13:01:00,
2013-11-03 05:07:00,37.4,8.1,29.85,NNW,341,0.0,0.0,29,0.00,,,0.04,VWS V14.01,2013-11-03 13:07:00,
2013-11-03 05:12:00,37.4,8.1,29.85,West,269,2.7,2.7,29,0.00,,,0.04,VWS V14.01,2013-11-03 13:12:00,
2013-11-03 05:17:00,37.6,8.2,29.85,WSW,246,4.0,4.0,29,0.00,,,0.04,VWS V14.01,2013-11-03 13:17:00,
2013-11-03 05:23:00,37.4,8.1,29.85,West,279,0.0,3.1,29,0.00,,,0.04,VWS V14.01,2013-11-03 13:23:00,
2013-11-03 05:29:00,37.2,7.9,29.85,WNW,302,0.0,0.0,29,0.00,,,0.04,VWS V14.01,2013-11-03 13:29:00,
2013-11-03 05:34:00,36.9,7.6,29.85,WNW,298,0.0,0.0,29,0.00,,,0.04,VWS V14.01,2013-11-03 13:34:00,
2013-11-03 05:39:00,36.7,7.4,29.85,NNE,17,0.0,0.0,29,0.00,,,0.04,VWS V14.01,2013-11-03 13:39:00,
2013-11-03 05:44:00,36.7,7.4,29.85,NNW,337,0.0,0.0,29,0.00,,,0.04,VWS V14.01,2013-11-03 13:44:00,
2013-11-03 05:50:00,36.7,7.4,29.85,North,357,0.0,0.0,29,0.00,,,0.04,VWS V14.01,2013-11-03 13:50:00,
2013-11-03 05:55:00,36.5,8.0,29.85,NNE,19,0.0,0.0,30,0.00,,,0.04,VWS V14.01,2013-11-03 13:55:00,
2013-11-03 06:01:00,36.5,8.0,29.85,NNE,14,3.6,3.6,30,0.00,,,0.04,VWS V14.01,2013-11-03 14:01:00,
2013-11-03 06:06:00,36.3,7.9,29.85,ESE,108,6.3,6.3,30,0.00,,,0.04,VWS V14.01,2013-11-03 14:06:00,
2013-11-03 06:11:00,36.3,7.9,29.85,NNE,32,0.0,0.0,30,0.00,,,0.04,VWS V14.01,2013-11-03 14:11:00,
2013-11-03 06:16:00,36.5,7.3,29.85,WNW,295,0.0,2.7,29,0.00,,,0.04,VWS V14.01,2013-11-03 14:16:00,
2013-11-03 06:22:00,36.5,7.3,29.85,NNE,32,3.6,3.6,29,0.00,,,0.04,VWS V14.01,2013-11-03 14:22:00,
2013-11-03 06:28:00,36.3,7.1,29.85,WNW,299,0.0,0.0,29,0.00,,,0.04,VWS V14.01,2013-11-03 14:28:00,
2013-11-03 06:33:00,36.9,7.6,29.85,SSW,206,4.0,4.0,29,0.00,,,0.04,VWS V14.01,2013-11-03 14:33:00,
2013-11-03 06:39:00,36.7,7.4,29.85,WNW,293,0.0,4.0,29,0.00,,,0.04,VWS V14.01,2013-11-03 14:39:00,
2013-11-03 06:44:00,37.0,7.8,29.85,NE,41,4.9,5.8,29,0.00,,,0.04,VWS V14.01,2013-11-03 14:44:00,
2013-11-03 06:50:00,37.0,7.8,29.85,North,3,0.0,0.0,29,0.00,,,0.04,VWS V14.01,2013-11-03 14:50:00,
2013-11-03 06:55:00,37.0,7.8,29.88,West,277,0.0,4.0,29,0.00,,,0.04,VWS V14.01,2013-11-03 14:55:00,
2013-11-03 07:00:00,36.9,7.6,29.88,WNW,295,0.0,0.0,29,0.00,,,0.04,VWS V14.01,2013-11-03 15:00:00,
2013-11-03 07:05:00,36.3,7.1,29.88,SSW,208,6.3,6.3,29,0.00,,,0.04,VWS V14.01,2013-11-03 15:05:00,
2013-11-03 07:11:00,37.4,8.1,29.88,WSW,240,10.5,10.5,29,0.00,,,0.04,VWS V14.01,2013-11-03 15:11:00,
2013-11-03 07:17:00,37.4,8.1,29.88,NNW,342,3.1,3.1,29,0.00,,,0.04,VWS V14.01,2013-11-03 15:17:00,
2013-11-03 07:22:00,36.9,7.6,29.88,WNW,285,0.0,4.0,29,0.00,,,0.04,VWS V14.01,2013-11-03 15:22:00,
2013-11-03 07:28:00,37.0,7.8,29.88,North,0,0.0,0.0,29,0.00,,,0.04,VWS V14.01,2013-11-03 15:28:00,
2013-11-03 07:33:00,36.9,7.6,29.88,North,353,0.0,0.0,29,0.00,,,0.04,VWS V14.01,2013-11-03 15:33:00,
2013-11-03 07:38:00,36.9,7.6,29.88,NNE,33,3.6,3.6,29,0.00,,,0.04,VWS V14.01,2013-11-03 15:38:00,
2013-11-03 07:43:00,36.9,7.6,29.88,NNW,344,0.0,0.0,29,0.00,,,0.04,VWS V14.01,2013-11-03 15:43:00,
2013-11-03 07:49:00,37.2,7.9,29.88,SW,230,0.0,3.1,29,0.00,,,0.04,VWS V14.01,2013-11-03 15:49:00,
2013-11-03 07:55:00,37.6,8.2,29.88,WSW,240,4.9,8.1,29,0.00,,,0.04,VWS V14.01,2013-11-03 15:55:00,
2013-11-03 08:00:00,37.8,8.4,29.88,SW,234,0.0,5.8,29,0.00,,,0.04,VWS V14.01,2013-11-03 16:00:00,
2013-11-03 08:05:00,37.9,8.5,29.88,SSW,213,5.4,5.4,29,0.00,,,0.04,VWS V14.01,2013-11-03 16:05:00,
2013-11-03 08:10:00,38.5,9.0,29.88,SW,230,5.8,5.8,29,0.00,,,0.04,VWS V14.01,2013-11-03 16:10:00,
2013-11-03 08:15:00,38.7,9.2,29.88,WSW,248,6.3,8.7,29,0.00,,,0.04,VWS V14.01,2013-11-03 16:15:00,
2013-11-03 08:21:00,38.8,9.3,29.88,South,174,6.3,7.6,29,0.00,,,0.04,VWS V14.01,2013-11-03 16:21:00,
2013-11-03 08:26:00,38.8,9.3,29.88,SW,221,5.4,5.4,29,0.00,,,0.04,VWS V14.01,2013-11-03 16:26:00,
2013-11-03 08:31:00,38.1,8.7,29.88,SW,231,10.5,10.5,29,0.00,,,0.04,VWS V14.01,2013-11-03 16:31:00,
2013-11-03 08:36:00,38.8,9.3,29.88,SW,232,0.0,6.3,29,0.00,,,0.04,VWS V14.01,2013-11-03 16:36:00,
2013-11-03 08:41:00,38.5,9.0,29.88,East,79,4.9,4.9,29,0.00,,,0.04,VWS V14.01,2013-11-03 16:41:00,
2013-11-03 08:46:00,38.7,9.2,29.88,NNE,31,0.0,0.0,29,0.00,,,0.04,VWS V14.01,2013-11-03 16:46:00,
2013-11-03 08:52:00,37.9,8.5,29.88,SE,136,3.6,4.0,29,0.00,,,0.04,VWS V14.01,2013-11-03 16:52:00,
2013-11-03 08:57:00,38.8,9.3,29.88,NE,36,0.0,0.0,29,0.00,,,0.04,VWS V14.01,2013-11-03 16:57:00,
2013-11-03 09:02:00,38.7,9.2,29.88,NE,38,0.0,0.0,29,0.00,,,0.04,VWS V14.01,2013-11-03 17:02:00,
2013-11-03 09:07:00,38.7,9.2,29.91,SW,228,0.0,2.7,29,0.00,,,0.04,VWS V14.01,2013-11-03 17:07:00,
2013-11-03 09:13:00,38.7,9.2,29.91,West,273,5.8,7.6,29,0.00,,,0.04,VWS V14.01,2013-11-03 17:13:00,
2013-11-03 09:18:00,39.0,9.5,29.91,NW,319,0.0,0.0,29,0.00,,,0.04,VWS V14.01,2013-11-03 17:18:00,
2013-11-03 09:23:00,39.2,8.9,29.91,WSW,257,0.0,0.0,28,0.00,,,0.04,VWS V14.01,2013-11-03 17:23:00,
2013-11-03 09:28:00,39.7,9.3,29.91,West,270,5.8,5.8,28,0.00,,,0.04,VWS V14.01,2013-11-03 17:28:00,
2013-11-03 09:34:00,40.5,8.3,29.91,East,89,5.4,5.4,26,0.00,,,0.04,VWS V14.01,2013-11-03 17:34:00,
2013-11-03 09:39:00,41.0,8.8,29.91,SSW,192,15.0,15.0,26,0.00,,,0.04,VWS V14.01,2013-11-03 17:39:00,
2013-11-03 09:44:00,41.4,9.1,29.91,SSW,206,11.0,11.0,26,0.00,,,0.04,VWS V14.01,2013-11-03 17:44:00,
2013-11-03 09:49:00,41.4,9.1,29.91,West,276,0.0,4.5,26,0.00,,,0.04,VWS V14.01,2013-11-03 17:49:00,
2013-11-03 09:54:00,41.9,9.5,29.91,SSW,209,11.0,11.0,26,0.00,,,0.04,VWS V14.01,2013-11-03 17:54:00,
2013-11-03 09:59:00,43.3,12.4,29.91,North,3,7.6,12.8,28,0.00,,,0.04,VWS V14.01,2013-11-03 17:59:00,
2013-11-03 10:04:00,43.5,10.0,29.91,North,3,10.5,15.0,25,0.00,,,0.04,VWS V14.01,2013-11-03 18:04:00,
2013-11-03 10:09:00,43.3,9.9,29.91,SSW,213,12.3,17.0,25,0.00,,,0.04,VWS V14.01,2013-11-03 18:09:00,
2013-11-03 10:15:00,43.2,9.7,29.91,North,6,11.0,14.5,25,0.00,,,0.04,VWS V14.01,2013-11-03 18:15:00,
2013-11-03 10:20:00,43.3,9.9,29.91,South,177,10.1,15.4,25,0.00,,,0.04,VWS V14.01,2013-11-03 18:20:00,
2013-11-03 10:25:00,43.3,9.9,29.91,SW,230,16.3,16.3,25,0.00,,,0.04,VWS V14.01,2013-11-03 18:25:00,
2013-11-03 10:30:00,43.0,9.6,29.91,SW,235,13.2,13.2,25,0.00,,,0.04,VWS V14.01,2013-11-03 18:30:00,
2013-11-03 10:35:00,42.6,10.1,29.91,SW,231,4.0,14.5,26,0.00,,,0.04,VWS V14.01,2013-11-03 18:35:00,
2013-11-03 10:40:00,42.3,9.8,29.91,SW,230,17.4,17.4,26,0.00,,,0.04,VWS V14.01,2013-11-03 18:40:00,
2013-11-03 10:46:00,41.5,10.9,29.91,WSW,246,12.8,15.4,28,0.00,,,0.04,VWS V14.01,2013-11-03 18:46:00,
2013-11-03 10:51:00,41.0,10.4,29.91,WSW,251,4.0,10.5,28,0.00,,,0.04,VWS V14.01,2013-11-03 18:51:00,
2013-11-03 10:56:00,40.6,10.1,29.94,SSW,213,8.1,10.5,28,0.00,,,0.04,VWS V14.01,2013-11-03 18:56:00,
2013-11-03 11:01:00,40.5,9.9,29.94,SW,222,9.6,9.6,28,0.00,,,0.04,VWS V14.01,2013-11-03 19:01:00,
2013-11-03 11:06:00,41.0,10.4,29.94,NNE,19,10.1,12.3,28,0.00,,,0.04,VWS V14.01,2013-11-03 19:06:00,
2013-11-03 11:12:00,41.5,10.9,29.91,WSW,239,5.8,15.4,28,0.00,,,0.04,VWS V14.01,2013-11-03 19:12:00,
2013-11-03 11:17:00,42.3,11.5,29.91,SSW,204,9.6,13.2,28,0.00,,,0.04,VWS V14.01,2013-11-03 19:17:00,
2013-11-03 11:22:00,42.3,11.5,29.91,SW,227,13.2,14.5,28,0.00,,,0.04,VWS V14.01,2013-11-03 19:22:00,
2013-11-03 11:27:00,42.3,11.5,29.91,SSW,210,11.0,11.9,28,0.00,,,0.04,VWS V14.01,2013-11-03 19:27:00,
2013-11-03 11:33:00,43.0,9.6,29.91,South,189,10.1,10.1,25,0.00,,,0.04,VWS V14.01,2013-11-03 19:33:00,
2013-11-03 11:38:00,43.7,10.2,29.91,North,3,14.1,14.5,25,0.00,,,0.04,VWS V14.01,2013-11-03 19:38:00,
2013-11-03 11:43:00,44.6,11.0,29.91,SSW,201,8.3,11.0,25,0.00,,,0.04,VWS V14.01,2013-11-03 19:43:00,
2013-11-03 11:48:00,45.0,11.3,29.91,SW,231,12.3,12.3,25,0.00,,,0.04,VWS V14.01,2013-11-03 19:48:00,
2013-11-03 11:54:00,45.1,11.4,29.91,North,10,8.1,10.5,25,0.00,,,0.04,VWS V14.01,2013-11-03 19:54:00,
2013-11-03 11:59:00,45.5,11.7,29.91,SSW,209,12.8,12.8,25,0.00,,,0.04,VWS V14.01,2013-11-03 19:59:00,
2013-11-03 12:05:00,44.8,11.1,29.91,North,6,13.6,13.6,25,0.00,,,0.04,VWS V14.01,2013-11-03 20:05:00,
2013-11-03 12:10:00,44.2,10.7,29.91,SW,236,17.4,17.4,25,0.00,,,0.04,VWS V14.01,2013-11-03 20:10:00,
2013-11-03 12:15:00,44.4,10.8,29.91,SSW,211,8.3,12.8,25,0.00,,,0.04,VWS V14.01,2013-11-03 20:15:00,
2013-11-03 12:21:00,44.4,10.8,29.91,North,4,13.6,16.8,25,0.00,,,0.04,VWS V14.01,2013-11-03 20:21:00,
2013-11-03 12:26:00,44.2,10.7,29.91,SW,235,14.1,14.1,25,0.00,,,0.04,VWS V14.01,2013-11-03 20:26:00,
2013-11-03 12:32:00,44.1,10.5,29.91,SW,227,13.2,13.6,25,0.00,,,0.04,VWS V14.01,2013-11-03 20:32:00,
2013-11-03 12:37:00,44.1,10.5,29.91,NNE,15,15.4,15.4,25,0.00,,,0.04,VWS V14.01,2013-11-03 20:37:00,
2013-11-03 12:42:00,44.1,10.5,29.91,WSW,237,12.8,18.3,25,0.00,,,0.04,VWS V14.01,2013-11-03 20:42:00,
2013-11-03 12:47:00,43.9,10.4,29.91,SW,235,5.8,12.8,25,0.00,,,0.04,VWS V14.01,2013-11-03 20:47:00,
2013-11-03 12:52:00,43.3,9.9,29.91,SSW,210,8.7,14.1,25,0.00,,,0.04,VWS V14.01,2013-11-03 20:52:00,
2013-11-03 12:58:00,43.5,10.0,29.91,North,4,8.7,12.3,25,0.00,,,0.04,VWS V14.01,2013-11-03 20:58:00,
2013-11-03 13:03:00,43.7,10.2,29.91,North,3,8.1,10.1,25,0.00,,,0.04,VWS V14.01,2013-11-03 21:03:00,
2013-11-03 13:08:00,43.7,10.2,29.91,WSW,241,11.0,11.0,25,0.00,,,0.04,VWS V14.01,2013-11-03 21:08:00,
2013-11-03 13:13:00,43.0,9.6,29.91,WSW,247,8.3,14.1,25,0.00,,,0.04,VWS V14.01,2013-11-03 21:13:00,
2013-11-03 13:19:00,42.4,10.0,29.91,SE,139,8.3,13.2,26,0.00,,,0.04,VWS V14.01,2013-11-03 21:19:00,
2013-11-03 13:25:00,42.3,9.8,29.91,SW,230,8.1,8.3,26,0.00,,,0.04,VWS V14.01,2013-11-03 21:25:00,
2013-11-03 13:30:00,42.1,9.7,29.91,SSE,167,13.2,13.2,26,0.00,,,0.04,VWS V14.01,2013-11-03 21:30:00,
2013-11-03 13:35:00,41.7,11.0,29.91,SSW,209,12.8,13.2,28,0.00,,,0.04,VWS V14.01,2013-11-03 21:35:00,
2013-11-03 13:40:00,41.4,10.7,29.91,SSW,206,3.6,8.1,28,0.00,,,0.04,VWS V14.01,2013-11-03 21:40:00,
2013-11-03 13:46:00,40.8,10.2,29.91,WNW,286,10.5,15.0,28,0.00,,,0.04,VWS V14.01,2013-11-03 21:46:00,
2013-11-03 13:51:00,41.0,10.4,29.91,North,5,6.7,7.6,28,0.00,,,0.04,VWS V14.01,2013-11-03 21:51:00,
2013-11-03 13:56:00,42.8,12.0,29.94,WSW,250,9.2,10.1,28,0.00,,,0.04,VWS V14.01,2013-11-03 21:56:00,
2013-11-03 14:01:00,41.9,11.2,29.94,North,3,8.7,11.0,28,0.00,,,0.04,VWS V14.01,2013-11-03 22:01:00,
2013-11-03 14:07:00,41.4,10.7,29.94,WSW,239,4.0,10.1,28,0.00,,,0.04,VWS V14.01,2013-11-03 22:07:00,
2013-11-03 14:12:00,42.6,11.8,29.94,West,262,8.3,14.5,28,0.00,,,0.04,VWS V14.01,2013-11-03 22:12:00,
2013-11-03 14:18:00,41.5,10.9,29.94,SW,220,10.5,12.8,28,0.00,,,0.04,VWS V14.01,2013-11-03 22:18:00,
2013-11-03 14:23:00,43.3,12.4,29.94,SW,232,8.3,10.1,28,0.00,,,0.04,VWS V14.01,2013-11-03 22:23:00,
2013-11-03 14:29:00,45.1,13.2,29.94,WSW,247,5.4,7.6,27,0.00,,,0.04,VWS V14.01,2013-11-03 22:29:00,
2013-11-03 14:34:00,45.3,13.3,29.94,WSW,243,10.5,10.5,27,0.00,,,0.04,VWS V14.01,2013-11-03 22:34:00,
2013-11-03 14:39:00,42.6,10.1,29.94,WSW,240,4.0,6.3,26,0.00,,,0.04,VWS V14.01,2013-11-03 22:39:00,
2013-11-03 14:44:00,41.7,11.0,29.94,WSW,256,0.0,3.6,28,0.00,,,0.04,VWS V14.01,2013-11-03 22:44:00,
2013-11-03 14:50:00,41.0,10.4,29.94,SSE,165,0.0,0.0,28,0.00,,,0.04,VWS V14.01,2013-11-03 22:50:00,
2013-11-03 14:56:00,40.6,10.1,29.94,SSW,211,0.0,4.0,28,0.00,,,0.04,VWS V14.01,2013-11-03 22:56:00,
2013-11-03 15:01:00,40.5,9.9,29.94,North,4,6.3,7.6,28,0.00,,,0.04,VWS V14.01,2013-11-03 23:01:00,
2013-11-03 15:07:00,40.5,9.9,29.94,West,279,0.0,0.0,28,0.00,,,0.04,VWS V14.01,2013-11-03 23:07:00,
2013-11-03 15:12:00,40.5,9.9,29.94,WSW,244,0.0,5.4,28,0.00,,,0.04,VWS V14.01,2013-11-03 23:12:00,
2013-11-03 15:17:00,40.6,10.1,29.94,SSW,206,4.9,6.3,28,0.00,,,0.04,VWS V14.01,2013-11-03 23:17:00,
2013-11-03 15:23:00,40.5,9.9,29.94,SW,222,0.0,0.0,28,0.00,,,0.04,VWS V14.01,2013-11-03 23:23:00,
2013-11-03 15:28:00,40.3,9.8,29.94,WNW,299,3.1,3.6,28,0.00,,,0.04,VWS V14.01,2013-11-03 23:28:00,
2013-11-03 15:34:00,40.3,9.8,29.94,WSW,257,3.1,5.8,28,0.00,,,0.04,VWS V14.01,2013-11-03 23:34:00,
2013-11-03 15:39:00,40.3,9.8,29.94,WSW,240,11.0,11.0,28,0.00,,,0.04,VWS V14.01,2013-11-03 23:39:00,
2013-11-03 15:45:00,40.3,9.8,29.94,West,265,10.1,10.1,28,0.00,,,0.04,VWS V14.01,2013-11-03 23:45:00,
2013-11-03 15:50:00,40.1,9.6,29.94,WSW,244,8.1,8.1,28,0.00,,,0.04,VWS V14.01,2013-11-03 23:50:00,
2013-11-03 15:56:00,40.1,9.6,29.94,SW,219,8.3,8.3,28,0.00,,,0.04,VWS V14.01,2013-11-03 23:56:00,
2013-11-03 16:01:00,39.7,9.3,29.94,West,262,3.6,6.3,28,0.00,,,0.04,VWS V14.01,2013-11-04 00:01:00,
2013-11-03 16:06:00,39.4,9.0,29.94,WNW,290,0.0,3.1,28,0.00,,,0.04,VWS V14.01,2013-11-04 00:06:00,
2013-11-03 16:11:00,40.5,9.9,29.94,SW,233,10.1,10.1,28,0.00,,,0.04,VWS V14.01,2013-11-04 00:11:00,
2013-11-03 16:17:00,40.6,10.1,29.94,SSW,209,4.0,5.8,28,0.00,,,0.04,VWS V14.01,2013-11-04 00:17:00,
2013-11-03 16:22:00,40.3,9.8,29.94,SSW,199,10.1,11.0,28,0.00,,,0.04,VWS V14.01,2013-11-04 00:22:00,
2013-11-03 16:27:00,40.3,9.8,29.94,SW,236,4.0,5.8,28,0.00,,,0.04,VWS V14.01,2013-11-04 00:27:00,
2013-11-03 16:32:00,39.9,9.5,29.94,West,277,0.0,0.0,28,0.00,,,0.04,VWS V14.01,2013-11-04 00:32:00,
2013-11-03 16:38:00,39.4,9.0,29.94,WNW,300,0.0,0.0,28,0.00,,,0.04,VWS V14.01,2013-11-04 00:38:00,
2013-11-03 16:43:00,39.9,9.5,29.94,SSW,204,5.8,8.7,28,0.00,,,0.04,VWS V14.01,2013-11-04 00:43:00,
2013-11-03 16:48:00,39.9,9.5,29.94,SW,230,8.3,11.0,28,0.00,,,0.04,VWS V14.01,2013-11-04 00:48:00,
2013-11-03 16:53:00,39.7,9.3,29.94,SW,236,5.4,8.7,28,0.00,,,0.04,VWS V14.01,2013-11-04 00:53:00,
2013-11-03 16:58:00,39.4,9.0,29.94,ESE,109,5.4,12.8,28,0.00,,,0.04,VWS V14.01,2013-11-04 00:58:00,
2013-11-03 17:03:00,39.2,8.9,29.94,WSW,247,7.6,11.0,28,0.00,,,0.04,VWS V14.01,2013-11-04 01:03:00,
2013-11-03 17:09:00,38.8,9.3,29.94,ENE,70,5.4,10.1,29,0.00,,,0.04,VWS V14.01,2013-11-04 01:09:00,
2013-11-03 17:14:00,38.8,9.3,29.94,SW,228,11.0,11.0,29,0.00,,,0.04,VWS V14.01,2013-11-04 01:14:00,
2013-11-03 17:20:00,38.5,9.0,29.94,SW,235,12.8,12.8,29,0.00,,,0.04,VWS V14.01,2013-11-04 01:20:00,
2013-11-03 17:25:00,38.3,8.8,29.97,SW,230,7.6,11.4,29,0.00,,,0.04,VWS V14.01,2013-11-04 01:25:00,
2013-11-03 17:31:00,38.3,8.8,29.97,SW,236,10.5,10.5,29,0.00,,,0.04,VWS V14.01,2013-11-04 01:31:00,
2013-11-03 17:36:00,38.3,8.8,29.97,South,172,6.3,6.3,29,0.00,,,0.04,VWS V14.01,2013-11-04 01:36:00,
2013-11-03 17:41:00,38.1,8.7,29.97,WSW,247,5.8,7.6,29,0.00,,,0.04,VWS V14.01,2013-11-04 01:41:00,
2013-11-03 17:46:00,37.6,8.2,29.97,SSW,208,10.5,12.8,29,0.00,,,0.04,VWS V14.01,2013-11-04 01:46:00,
2013-11-03 17:52:00,36.9,7.6,29.97,SW,234,7.2,7.2,29,0.00,,,0.04,VWS V14.01,2013-11-04 01:52:00,
2013-11-03 17:58:00,36.3,7.1,29.97,WSW,257,6.3,7.6,29,0.00,,,0.04,VWS V14.01,2013-11-04 01:58:00,
2013-11-03 18:04:00,35.8,6.7,29.97,WNW,301,0.0,5.4,29,0.00,,,0.04,VWS V14.01,2013-11-04 02:04:00,
2013-11-03 18:09:00,35.6,6.5,29.97,West,271,0.0,0.0,29,0.00,,,0.04,VWS V14.01,2013-11-04 02:09:00,
2013-11-03 18:14:00,35.4,7.1,29.97,NNW,337,0.0,0.0,30,0.00,,,0.04,VWS V14.01,2013-11-04 02:14:00,
2013-11-03 18:20:00,35.2,6.9,29.97,NNW,344,0.0,0.0,30,0.00,,,0.04,VWS V14.01,2013-11-04 02:20:00,
2013-11-03 18:26:00,35.1,6.8,29.97,NNW,345,0.0,0.0,30,0.00,,,0.04,VWS V14.01,2013-11-04 02:26:00,
2013-11-03 18:31:00,35.1,6.8,29.97,West,264,0.0,0.0,30,0.00,,,0.04,VWS V14.01,2013-11-04 02:31:00,
2013-11-03 18:37:00,34.7,6.4,29.97,WNW,285,0.0,0.0,30,0.00,,,0.04,VWS V14.01,2013-11-04 02:37:00,
2013-11-03 18:42:00,34.5,6.3,29.97,NW,311,0.0,0.0,30,0.00,,,0.04,VWS V14.01,2013-11-04 02:42:00,
2013-11-03 18:48:00,34.3,6.1,29.97,NW,313,0.0,0.0,30,0.00,,,0.04,VWS V14.01,2013-11-04 02:48:00,
2013-11-03 18:54:00,34.2,6.0,29.97,NW,315,0.0,0.0,30,0.00,,,0.04,VWS V14.01,2013-11-04 02:54:00,
2013-11-03 18:59:00,34.0,5.8,29.97,NW,324,0.0,0.0,30,0.00,,,0.04,VWS V14.01,2013-11-04 02:59:00,
2013-11-03 19:05:00,34.2,6.0,29.97,NNW,339,0.0,0.0,30,0.00,,,0.04,VWS V14.01,2013-11-04 03:05:00,
2013-11-03 19:10:00,34.0,5.8,29.97,NNW,340,0.0,0.0,30,0.00,,,0.04,VWS V14.01,2013-11-04 03:10:00,
2013-11-03 19:16:00,33.6,5.5,29.97,NNW,341,0.0,0.0,30,0.00,,,0.04,VWS V14.01,2013-11-04 03:16:00,
2013-11-03 19:21:00,33.4,5.3,29.97,NNW,341,0.0,0.0,30,0.00,,,0.04,VWS V14.01,2013-11-04 03:21:00,
2013-11-03 19:27:00,33.3,5.2,29.97,NNW,341,0.0,0.0,30,0.00,,,0.04,VWS V14.01,2013-11-04 03:27:00,
2013-11-03 19:33:00,33.1,5.0,29.97,NNW,341,0.0,0.0,30,0.00,,,0.04,VWS V14.01,2013-11-04 03:33:00,
2013-11-03 19:38:00,33.1,5.0,29.97,NNW,341,0.0,0.0,30,0.00,,,0.04,VWS V14.01,2013-11-04 03:38:00,
2013-11-03 19:44:00,32.9,4.9,29.97,NNW,341,0.0,0.0,30,0.00,,,0.04,VWS V14.01,2013-11-04 03:44:00,
2013-11-03 19:49:00,32.9,4.9,29.97,NNW,341,0.0,0.0,30,0.00,,,0.04,VWS V14.01,2013-11-04 03:49:00,
2013-11-03 19:54:00,32.9,4.9,30.00,NNW,341,0.0,0.0,30,0.00,,,0.04,VWS V14.01,2013-11-04 03:54:00,
2013-11-03 20:00:00,32.7,4.7,30.00,NNW,341,0.0,0.0,30,0.00,,,0.04,VWS V14.01,2013-11-04 04:00:00,
2013-11-03 20:05:00,32.7,4.7,30.00,NNW,340,0.0,0.0,30,0.00,,,0.04,VWS V14.01,2013-11-04 04:05:00,
2013-11-03 20:11:00,32.5,4.6,30.00,NNW,339,0.0,0.0,30,0.00,,,0.04,VWS V14.01,2013-11-04 04:11:00,
2013-11-03 20:16:00,32.5,4.6,30.00,NNW,330,0.0,0.0,30,0.00,,,0.04,VWS V14.01,2013-11-04 04:16:00,
2013-11-03 20:22:00,32.5,4.6,30.00,NNW,327,0.0,0.0,30,0.00,,,0.04,VWS V14.01,2013-11-04 04:22:00,
2013-11-03 20:27:00,32.7,4.7,30.00,NW,315,0.0,0.0,30,0.00,,,0.04,VWS V14.01,2013-11-04 04:27:00,
2013-11-03 20:33:00,32.7,4.7,30.00,WNW,291,0.0,0.0,30,0.00,,,0.04,VWS V14.01,2013-11-04 04:33:00,
2013-11-03 20:39:00,32.7,4.7,30.00,West,279,0.0,0.0,30,0.00,,,0.04,VWS V14.01,2013-11-04 04:39:00,
2013-11-03 20:44:00,32.7,4.7,30.00,West,280,0.0,0.0,30,0.00,,,0.04,VWS V14.01,2013-11-04 04:44:00,
2013-11-03 20:50:00,32.9,4.9,30.00,West,279,0.0,0.0,30,0.00,,,0.04,VWS V14.01,2013-11-04 04:50:00,
2013-11-03 20:55:00,33.3,5.2,30.00,West,280,0.0,0.0,30,0.00,,,0.04,VWS V14.01,2013-11-04 04:55:00,
2013-11-03 21:00:00,33.3,5.2,30.00,West,263,0.0,0.0,30,0.00,,,0.04,VWS V14.01,2013-11-04 05:00:00,
2013-11-03 21:01:00,33.3,5.2,30.00,SW,226,2.7,3.6,30,0.00,,,0.04,VWS V14.01,2013-11-04 05:01:00,
2013-11-03 21:02:00,33.3,5.2,30.00,West,280,2.7,4.0,30,0.00,,,0.04,VWS V14.01,2013-11-04 05:02:00,
2013-11-03 21:03:00,33.3,5.2,30.00,West,261,5.4,5.4,30,0.00,,,0.04,VWS V14.01,2013-11-04 05:03:00,
2013-11-03 21:06:00,33.3,5.2,30.00,West,271,0.0,3.1,30,0.00,,,0.04,VWS V14.01,2013-11-04 05:06:00,
2013-11-03 21:09:00,33.3,5.2,30.00,WSW,237,3.6,4.9,30,0.00,,,0.04,VWS V14.01,2013-11-04 05:09:00,
2013-11-03 21:15:00,33.4,5.3,30.00,West,259,3.6,5.4,30,0.00,,,0.04,VWS V14.01,2013-11-04 05:15:00,
2013-11-03 21:20:00,33.4,5.3,30.00,West,266,0.0,2.7,30,0.00,,,0.04,VWS V14.01,2013-11-04 05:20:00,
2013-11-03 21:26:00,33.3,5.2,30.00,WSW,247,3.1,3.6,30,0.00,,,0.04,VWS V14.01,2013-11-04 05:26:00,
2013-11-03 21:31:00,33.3,5.2,30.00,NW,310,3.1,4.0,30,0.00,,,0.04,VWS V14.01,2013-11-04 05:31:00,
2013-11-03 21:36:00,33.1,5.0,30.00,West,277,3.6,4.9,30,0.00,,,0.04,VWS V14.01,2013-11-04 05:36:00,
2013-11-03 21:41:00,33.1,5.0,30.00,SW,231,0.0,0.0,30,0.00,,,0.04,VWS V14.01,2013-11-04 05:41:00,
2013-11-03 21:46:00,33.1,5.0,30.00,WSW,249,3.6,4.0,30,0.00,,,0.04,VWS V14.01,2013-11-04 05:46:00,
2013-11-03 21:51:00,33.1,5.0,30.00,West,274,0.0,3.6,30,0.00,,,0.04,VWS V14.01,2013-11-04 05:51:00,
2013-11-03 21:57:00,33.1,5.0,30.00,WSW,243,0.0,3.1,30,0.00,,,0.04,VWS V14.01,2013-11-04 05:57:00,
2013-11-03 22:02:00,33.1,5.0,30.00,WNW,298,3.1,3.6,30,0.00,,,0.04,VWS V14.01,2013-11-04 06:02:00,
2013-11-03 22:07:00,33.1,5.0,30.00,WNW,298,2.7,2.7,30,0.00,,,0.04,VWS V14.01,2013-11-04 06:07:00,
2013-11-03 22:13:00,33.3,5.2,30.00,NW,324,0.0,2.7,30,0.00,,,0.04,VWS V14.01,2013-11-04 06:13:00,
2013-11-03 22:18:00,33.3,5.2,30.00,SSW,196,0.0,0.0,30,0.00,,,0.04,VWS V14.01,2013-11-04 06:18:00,
2013-11-03 22:23:00,33.1,5.0,30.00,WSW,252,0.0,0.0,30,0.00,,,0.04,VWS V14.01,2013-11-04 06:23:00,
2013-11-03 22:28:00,33.1,5.0,30.00,WSW,244,4.9,4.9,30,0.00,,,0.04,VWS V14.01,2013-11-04 06:28:00,
2013-11-03 22:33:00,32.9,4.9,30.00,WSW,242,2.7,5.4,30,0.00,,,0.04,VWS V14.01,2013-11-04 06:33:00,
2013-11-03 22:39:00,32.7,4.7,30.00,SW,234,4.0,6.3,30,0.00,,,0.04,VWS V14.01,2013-11-04 06:39:00,
2013-11-03 22:45:00,32.5,4.6,30.00,WNW,288,0.0,0.0,30,0.00,,,0.04,VWS V14.01,2013-11-04 06:45:00,
2013-11-03 22:50:00,32.4,4.4,30.00,WSW,237,3.6,3.6,30,0.00,,,0.04,VWS V14.01,2013-11-04 06:50:00,
2013-11-03 22:56:00,32.4,4.4,30.00,NW,318,0.0,3.6,30,0.00,,,0.04,VWS V14.01,2013-11-04 06:56:00,
2013-11-03 23:01:00,32.4,4.4,30.00,WSW,238,3.6,7.6,30,0.00,,,0.04,VWS V14.01,2013-11-04 07:01:00,
2013-11-03 23:06:00,32.2,4.2,30.00,West,272,0.0,3.6,30,0.00,,,0.04,VWS V14.01,2013-11-04 07:06:00,
2013-11-03 23:11:00,32.0,4.1,30.00,WNW,286,0.0,0.0,30,0.00,,,0.04,VWS V14.01,2013-11-04 07:11:00,
2013-11-03 23:17:00,31.8,3.9,30.00,WNW,297,0.0,7.6,30,0.00,,,0.04,VWS V14.01,2013-11-04 07:17:00,
2013-11-03 23:22:00,31.8,3.9,30.00,West,261,0.0,3.6,30,0.00,,,0.04,VWS V14.01,2013-11-04 07:22:00,
2013-11-03 23:28:00,31.8,3.9,30.00,WNW,303,2.7,3.6,30,0.00,,,0.04,VWS V14.01,2013-11-04 07:28:00,
2013-11-03 23:33:00,31.6,3.8,30.00,SW,228,0.0,0.0,30,0.00,,,0.04,VWS V14.01,2013-11-04 07:33:00,
2013-11-03 23:38:00,31.6,3.8,30.00,West,264,0.0,0.0,30,0.00,,,0.04,VWS V14.01,2013-11-04 07:38:00,
2013-11-03 23:43:00,31.5,3.6,30.00,WNW,303,0.0,0.0,30,0.00,,,0.04,VWS V14.01,2013-11-04 07:43:00,
2013-11-03 23:48:00,31.5,3.6,30.00,North,353,0.0,0.0,30,0.00,,,0.04,VWS V14.01,2013-11-04 07:48:00,
2013-11-03 23:54:00,31.3,3.5,30.00,North,353,0.0,0.0,30,0.00,,,0.04,VWS V14.01,2013-11-04 07:54:00,
2013-11-03 23:59:00,31.3,3.5,30.00,WSW,258,0.0,3.6,30,0.00,,,0.04,VWS V14.01,2013-11-04 07:59:00,